Weather reports worldwide

Advertisment
Carterhouse, United Kingdom (99129): temperature & dewpoint: 18.06.2017 04:00:00 - 24.06.2017 04:00:00 (BST)Carterhouse, United Kingdom (99129): temperature 5cm: 18.06.2017 04:00:00 - 24.06.2017 04:00:00 (BST)Carterhouse, United Kingdom (99129): temperature -20cm & temperature -100cm: 18.06.2017 04:00:00 - 24.06.2017 04:00:00 (BST)Carterhouse, United Kingdom (99129): wind speed: 18.06.2017 04:00:00 - 24.06.2017 04:00:00 (BST)Carterhouse, United Kingdom (99129): wind direction: 18.06.2017 04:00:00 - 24.06.2017 04:00:00 (BST)Carterhouse, United Kingdom (99129): visibility: 18.06.2017 04:00:00 - 24.06.2017 04:00:00 (BST)Carterhouse, United Kingdom (99129): precipitation: 18.06.2017 04:00:00 - 24.06.2017 04:00:00 (BST)
Date & Time tt [°C] td [°C] tt 5cm [°C] tt -20cm [°C] tt -100cm [°C] ff [km/h] ff [kn] dd vv [km] rr [mm]
24.06.2017 04:00:00 - - - - - - - - - 0,0
24.06.2017 03:00:00 9,4 6,4 - - - - - - - 0,0
24.06.2017 02:00:00 9,5 6,5 - - - - - - - 0,0
24.06.2017 01:00:00 9,4 6,9 - - - - - - - 0,0
24.06.2017 00:00:00 10,3 7,8 - - - - - - - 0,0
23.06.2017 23:00:00 10,5 8,6 - - - - - - - 0,0
23.06.2017 22:00:00 11,5 9,1 - - - - - - 10 0,0
23.06.2017 21:00:00 13,4 9,0 - - - - - - - 0,0
23.06.2017 20:00:00 13,7 10,2 - - - - - - - 0,0
23.06.2017 19:00:00 14,6 10,1 - - - - - - - 0,0
23.06.2017 18:00:00 14,7 11,3 - - - - - - - 0,0
23.06.2017 17:00:00 14,1 12,1 - - - - - - - 0,0
23.06.2017 16:00:00 13,2 12,3 - - - - - - - 0,0
23.06.2017 15:00:00 14,7 13,3 - - - - - - - 0,2
23.06.2017 14:00:00 13,6 13,0 - - - - - - - 0,8
23.06.2017 13:00:00 14,0 13,5 - - - - - - - 0,0
23.06.2017 12:00:00 13,5 13,0 - - - - - - - 0,0
23.06.2017 11:00:00 13,1 12,7 - - - - - - - 0,0
23.06.2017 10:00:00 12,6 12,3 - 16,4 13,4 58 31 N 0,7 0,2
23.06.2017 09:00:00 12,2 11,9 - - - - - - - 0,0
23.06.2017 08:00:00 12,0 11,4 - - - - - - - 0,0
23.06.2017 07:00:00 11,4 11,2 - - - - - - - 0,2
23.06.2017 06:00:00 11,3 10,9 - - - - - - - 0,4
23.06.2017 05:00:00 11,4 10,5 - - - - - - - 0,2
23.06.2017 04:00:00 11,4 10,2 - - - - - - - 0,2
23.06.2017 03:00:00 11,7 9,9 - - - - - - - 0,0
23.06.2017 02:00:00 11,7 10,1 - - - - - - - 0,0
23.06.2017 01:00:00 11,6 10,4 - - - - - - - 0,0
23.06.2017 00:00:00 11,4 9,7 - - - - - - - 0,0
22.06.2017 23:00:00 11,8 10,3 - - - - - - - 0,0
22.06.2017 22:00:00 12,5 10,6 - - - - - - - 0,0
22.06.2017 21:00:00 13,3 10,9 - - - - - - - 0,0
22.06.2017 20:00:00 14,4 10,8 - - - - - - - 0,0
22.06.2017 19:00:00 16,7 8,8 - - - - - - - 0,0
22.06.2017 18:00:00 19,1 11,0 - - - - - - - 0,0
22.06.2017 17:00:00 18,5 11,9 - - - - - - - 0,0
22.06.2017 16:00:00 17,7 12,6 - - - - - - - 0,0
22.06.2017 15:00:00 17,1 12,2 - - - - - - - 0,0
22.06.2017 14:00:00 17,2 12,0 - - - - - - - 0,0
22.06.2017 13:00:00 16,1 11,5 - - - - - - - 0,0
22.06.2017 12:00:00 15,7 11,5 - - - - - - - 0,0
22.06.2017 11:00:00 16,8 12,0 - - - - - - - 0,0
22.06.2017 10:00:00 15,6 11,8 - 16,7 13,2 111 60 N 4,7 0,0
22.06.2017 09:00:00 14,6 11,9 - - - - - - - 0,0
22.06.2017 08:00:00 15,5 14,9 - - - - - - - 0,0
22.06.2017 07:00:00 15,5 15,0 - - - - - - - 0,0
22.06.2017 06:00:00 15,3 15,1 - - - - - - - 0,0
22.06.2017 05:00:00 15,4 15,1 - - - - - - - 0,0
22.06.2017 04:00:00 15,9 15,4 - - - - - - - 0,0
22.06.2017 03:00:00 15,9 15,4 - - - - - - - 0,0
22.06.2017 02:00:00 15,5 15,1 - - - - - - - 0,0
22.06.2017 01:00:00 16,3 15,0 - - - - - - - 0,0
22.06.2017 00:00:00 18,0 15,1 - - - - - - - 0,0
21.06.2017 23:00:00 19,6 17,2 - - - - - - - 0,0
21.06.2017 22:00:00 21,0 17,9 - - - - - - - 0,0
21.06.2017 21:00:00 20,9 17,6 - - - - - - - 0,0
21.06.2017 20:00:00 22,2 16,7 - - - - - - - 0,0
21.06.2017 19:00:00 22,1 16,5 - - - - - - - 0,0
21.06.2017 18:00:00 21,8 16,9 - - - - - - - 0,0
21.06.2017 17:00:00 22,3 16,9 - - - - - - - 0,0
21.06.2017 16:00:00 21,7 17,3 - - - - - - - 0,0
21.06.2017 15:00:00 21,3 17,3 - - - - - - - 0,0
21.06.2017 14:00:00 21,2 17,7 - - - - - - - 0,0
21.06.2017 13:00:00 17,6 15,5 - - - - - - - 0,0
21.06.2017 12:00:00 16,7 14,4 - - - - - - - 0,0
21.06.2017 11:00:00 16,1 14,9 - - - - - - - 0,0
21.06.2017 10:00:00 13,7 12,9 15,5 16,2 13,0 86 47 N 0,7 2,4
21.06.2017 09:00:00 14,7 11,8 - - - - - - - 0,0
21.06.2017 08:00:00 13,4 10,3 - - - - - - - 0,0
21.06.2017 07:00:00 12,7 8,7 - - - - - - - 0,0
21.06.2017 06:00:00 12,4 8,3 - - - - - - - 0,0
21.06.2017 05:00:00 11,4 7,8 - - - - - - - 0,0
21.06.2017 04:00:00 11,4 7,1 - - - - - - - 0,0
21.06.2017 03:00:00 11,7 7,1 - - - - - - - 0,0
21.06.2017 02:00:00 11,6 7,5 - - - - - - - 0,0
21.06.2017 01:00:00 11,5 10,1 - - - - - - - 0,0
21.06.2017 00:00:00 11,9 10,6 - - - - - - - 0,0
20.06.2017 23:00:00 12,0 10,5 - - - - - - - 0,0
20.06.2017 22:00:00 12,3 10,8 - - - - - - - 0,0
20.06.2017 21:00:00 13,7 11,1 - - - - - - - 0,0
20.06.2017 20:00:00 14,9 11,5 - - - - - - - 0,0
20.06.2017 19:00:00 16,0 11,2 - - - - - - - 0,0
20.06.2017 18:00:00 17,1 11,7 - - - - - - - 0,0
20.06.2017 17:00:00 18,0 11,7 - - - - - - - 0,0
20.06.2017 16:00:00 18,1 13,2 - - - - - - - 0,0
20.06.2017 15:00:00 17,8 12,1 - - - - - - - 0,0
20.06.2017 14:00:00 17,4 11,1 - - - - - - - 0,0
20.06.2017 13:00:00 17,4 11,0 - - - - - - - 0,0
20.06.2017 12:00:00 17,3 11,6 - - - - - - - 0,0
20.06.2017 11:00:00 16,1 11,6 - - - - - - - 0,0
20.06.2017 10:00:00 16,2 11,9 16,4 16,0 12,9 65 35 N 18 0,0
20.06.2017 09:00:00 14,4 11,7 - - - - - - - 0,0
20.06.2017 08:00:00 10,5 10,3 - - - - - - - 0,0
20.06.2017 07:00:00 9,7 9,7 - - - - - - - 0,0
20.06.2017 06:00:00 8,8 8,8 - - - - - - - 0,0
20.06.2017 05:00:00 7,5 7,4 - - - - - - - 0,0
20.06.2017 04:00:00 8,8 8,8 - - - - - - - 0,0
20.06.2017 03:00:00 9,0 9,0 - - - - - - - 0,0
20.06.2017 02:00:00 10,2 9,8 - - - - - - - 0,0
20.06.2017 01:00:00 11,1 11,1 - - - - - - - 0,0
20.06.2017 00:00:00 10,9 10,8 - - - - - - - 0,0
19.06.2017 23:00:00 11,3 10,7 - - - - - - - 0,0
19.06.2017 22:00:00 12,7 11,3 - - - - - - - 0,0
19.06.2017 21:00:00 16,0 11,8 - - - - - - - 0,0
19.06.2017 20:00:00 19,4 11,2 - - - - - - - 0,0
19.06.2017 19:00:00 21,0 13,6 - - - - - - - 0,0
19.06.2017 18:00:00 20,4 15,0 - - - - - - - 0,0
19.06.2017 17:00:00 22,1 14,8 - - - - - - - 0,0
19.06.2017 16:00:00 22,6 14,2 - - - - - - - 0,0
19.06.2017 15:00:00 23,8 16,0 - - - - - - - 0,0
19.06.2017 14:00:00 22,1 15,1 - - - - - - - 0,0
19.06.2017 13:00:00 23,0 14,6 - - - - - - - 0,0
19.06.2017 12:00:00 22,1 14,3 - - - - - - - 0,0
19.06.2017 11:00:00 20,7 13,6 - - - - - - - 0,0
19.06.2017 10:00:00 19,6 13,2 20,4 15,7 12,7 37 20 N 22 0,0
19.06.2017 09:00:00 18,7 12,3 - - - - - - - 0,0
19.06.2017 08:00:00 17,6 12,3 - - - - - - - 0,0
19.06.2017 07:00:00 15,7 12,0 - - - - - - - 0,0
19.06.2017 06:00:00 14,0 11,7 - - - - - - - 0,0
19.06.2017 05:00:00 11,8 9,9 - - - - - - - 0,0
19.06.2017 04:00:00 13,8 12,0 - - - - - - - 0,0
19.06.2017 03:00:00 10,9 9,1 - - - - - - - 0,0
19.06.2017 02:00:00 11,8 9,1 - - - - - - - 0,0
19.06.2017 01:00:00 10,9 7,8 - - - - - - - 0,0
19.06.2017 00:00:00 12,0 6,3 - - - - - - - 0,0
18.06.2017 23:00:00 15,5 10,3 - - - - - - - 0,0
18.06.2017 22:00:00 16,6 12,5 - - - - - - - 0,0
18.06.2017 21:00:00 18,9 13,6 - - - - - - - 0,0
18.06.2017 20:00:00 20,3 13,8 - - - - - - - 0,0
18.06.2017 19:00:00 21,2 13,8 - - - - - - - 0,0
18.06.2017 18:00:00 22,4 14,0 - - - - - - - 0,0
18.06.2017 17:00:00 22,6 13,5 - - - - - - - 0,0
18.06.2017 16:00:00 23,3 14,1 - - - - - - - 0,0
18.06.2017 15:00:00 22,9 13,2 - - - - - - - 0,0
18.06.2017 14:00:00 22,4 14,4 - - - - - - - 0,0
18.06.2017 13:00:00 21,8 13,7 - - - - - - - 0,0
18.06.2017 12:00:00 20,9 14,3 - - - - - - - 0,0
18.06.2017 11:00:00 20,3 14,1 - - - - - - - 0,0
18.06.2017 10:00:00 18,8 13,6 18,8 14,9 12,5 76 41 N 1,1 0,0
18.06.2017 09:00:00 16,7 13,0 - - - - - - - 0,0
18.06.2017 08:00:00 15,3 12,0 - - - - - - - 0,0
18.06.2017 07:00:00 14,0 11,7 - - - - - - - 0,0
18.06.2017 06:00:00 12,4 11,5 - - - - - - - 0,0
18.06.2017 05:00:00 12,2 11,1 - - - - - - - 0,0
18.06.2017 04:00:00 12,9 11,2 - - - - - - - 0,0

tt = temperature
td = dewpoint
tt 5cm = temperature 5cm
tt -20cm = temperature -20cm
tt -100cm = temperature -100cm
ff = wind speed
dd = wind direction
vv = visibility
rr = precipitation

Next stations